sat.trackr.live / text

‹ back to catalog

STARLINK-30273

NORAD 57681 · 2023-124U

PAYLOAD ACTIVE UNKNOWN

§ Identity

Operator
Country
US
Launch date
2023-08-22
Launch site
AFWTR
Launch vehicle
Mass (kg)
RCS (m²)

Purposes: comms

External: N2YO · Heavens-Above · Gunter

§ Orbital elements

Epoch: 2026-09-20T14:14:42.094464Z

Period
93.60 min
Inclination
53.1561°
Eccentricity
0.0003695
Mean motion
15.38387767 rev/d
Perigee alt
448.4 km
Apogee alt
453.4 km
Semi-major
6,829.0 km
B*
1.2370e-3
RAAN
18.6932°
Arg perigee
315.0981°
Mean anomaly
44.9724°
Rev number
17,344

§ Raw data

STARLINK-302731 57681U 23124U   26263.59354276  .00047433  00000+0  12370-2 0  99942 57681  53.1561  18.6932 0003695 315.0981  44.9724 15.38387767173443

JSON: /api/v1/satellites/57681 · /tle

For live sub-satellite position, see the globe view (requires WebGL).

§ Visibility from observer

Set your observer location to see the next 7 days of passes ≥ 10°. The values pass through the URL so the page stays shareable.

No JS? Fill the form by hand. The geolocation button needs JavaScript.